FW1276 Princess Anne MD US current weather conditions

sailwx.info

Wind from 295

Air temperature 5.0° C
Dewpoint 2.4° C

Last reported at 2019-Nov-21 05:03 UTC.
Time now 2019-Nov-21 06:02 UTC

Location: N 38°12' W 075°42'.
View on Google Maps.

See reports from other nearby stations

  
Tides and Currents Weather Stations Pressure Air Temp Water Temp Dewpoint Dewpoint Depression Visibility Wind Speed Wind Dir Waves Ship Positions
date/time (UTC)wind fromknots sea level pressurealtimeterstation pressurevisibilityair tempwater tempwave heightnotes
2019-Nov-21 05:03 295 5.0
2019-Nov-21 04:58 295 5.0
2019-Nov-21 04:53 295 5.0
2019-Nov-21 04:48 285 5.0
2019-Nov-21 04:43 284 5.0
2019-Nov-21 04:38 326 5.0
2019-Nov-21 04:33 322 5.0
2019-Nov-21 04:28 320 5.0
2019-Nov-21 04:23 349 5.0
2019-Nov-21 04:18 289 5.0
2019-Nov-21 04:13 289 5.0
2019-Nov-21 04:08 267 5.6
2019-Nov-21 04:03 267 5.6
2019-Nov-21 03:58 301 5.6
2019-Nov-21 03:53 301 5.6
2019-Nov-21 03:48 301 5.6
2019-Nov-21 03:43 305 5.6
2019-Nov-21 03:38 266 5.6
2019-Nov-21 03:33 203 5.6
2019-Nov-21 03:28 204 5.6
2019-Nov-21 03:23 338 6.1
2019-Nov-21 03:18 260 6.1
2019-Nov-21 03:13 277 6.1
2019-Nov-21 03:08 309 6.1
2019-Nov-21 03:03 287 6.1
2019-Nov-21 02:58 312 6.1
2019-Nov-21 02:53 274 6.1
2019-Nov-21 02:48 293 5.6
2019-Nov-21 02:43 266 5.6
2019-Nov-21 02:38 277 5.6
2019-Nov-21 02:32 294 5.6
2019-Nov-21 02:27 260 5.6
2019-Nov-21 02:22 262 5.0
2019-Nov-21 02:17 316 5.0
2019-Nov-21 02:12 271 5.0
2019-Nov-21 02:07 235 4.4
2019-Nov-21 02:02 308 4.4
2019-Nov-21 01:57 289 4.4
2019-Nov-21 01:53 288 4.4
2019-Nov-21 01:48 288 4.4
2019-Nov-21 01:42 288 4.4
2019-Nov-21 01:37 288 4.4
2019-Nov-21 01:32 288 4.4
2019-Nov-21 01:27 288 4.4
2019-Nov-21 01:22 288 5.0
2019-Nov-21 01:17 288 5.0
2019-Nov-21 01:12 288 5.0
2019-Nov-21 01:07 288 5.0
2019-Nov-21 01:02 288 5.0
2019-Nov-21 00:57 288 5.6
2019-Nov-21 00:52 288 5.6
2019-Nov-21 00:47 288 5.6
2019-Nov-21 00:42 288 6.1
2019-Nov-21 00:37 288 6.1
2019-Nov-21 00:32 288 6.7
2019-Nov-21 00:27 288 6.7
2019-Nov-21 00:22 288 6.7
2019-Nov-21 00:17 267 7.2
2019-Nov-21 00:12 263 0 gusting 2 7.2
2019-Nov-21 00:07 295 0 gusting 2 7.2
2019-Nov-21 00:02 293 0 gusting 1 7.2
2019-Nov-20 23:57 255 0 gusting 3 7.2
2019-Nov-20 23:52 304 0 gusting 3 7.2
2019-Nov-20 23:47 274 0 gusting 1 7.2
2019-Nov-20 23:42 281 7.8
2019-Nov-20 23:37 215 7.8
2019-Nov-20 23:32 215 7.8
2019-Nov-20 23:27 290 0 gusting 3 7.8
2019-Nov-20 23:22 282 0 gusting 3 7.8
2019-Nov-20 23:17 309 0 gusting 4 7.8
2019-Nov-20 23:12 285 0 gusting 4 7.8
2019-Nov-20 23:07 262 0 gusting 2 8.3
2019-Nov-20 23:02 268 0 gusting 6 8.3
2019-Nov-20 22:57 297 0 gusting 6 8.3
2019-Nov-20 22:52 288 0 gusting 4 8.3
2019-Nov-20 22:47 287 0 gusting 4 8.3
2019-Nov-20 22:42 275 1 gusting 4 8.9
2019-Nov-20 22:37 288 1 gusting 5 8.9
2019-Nov-20 22:32 295 1 gusting 6 8.9
2019-Nov-20 22:27 241 2 gusting 6 8.9
2019-Nov-20 22:22 256 1 gusting 6 9.4
2019-Nov-20 22:17 204 1 gusting 5 9.4
2019-Nov-20 22:12 335 2 gusting 6 9.4
2019-Nov-20 22:07 298 1 gusting 6 9.4
2019-Nov-20 22:02 245 2 gusting 9 10.0
2019-Nov-20 21:57 330 2 gusting 9 10.0
2019-Nov-20 21:52 260 2 gusting 6 10.0
2019-Nov-20 21:47 290 2 gusting 6 10.6
2019-Nov-20 21:42 295 2 gusting 7 10.6
2019-Nov-20 21:37 359 2 gusting 7 10.6
2019-Nov-20 21:32 039 2 gusting 6 10.6
2019-Nov-20 21:27 283 2 gusting 9 10.6
2019-Nov-20 21:22 269 2 gusting 9 10.6
2019-Nov-20 21:17 272 2 gusting 5 10.6
2019-Nov-20 21:12 298 1 gusting 5 10.6
2019-Nov-20 21:07 278 1 gusting 5 10.6
2019-Nov-20 21:02 291 2 gusting 6 10.6
2019-Nov-20 20:57 301 2 gusting 9 10.6
2019-Nov-20 20:52 297 2 gusting 9 10.6
2019-Nov-20 20:47 308 2 gusting 6 10.6
2019-Nov-20 20:42 287 2 gusting 12 10.6
2019-Nov-20 20:37 338 2 gusting 12 10.6
2019-Nov-20 20:32 276 1 gusting 6 10.6
2019-Nov-20 20:27 339 2 gusting 6 11.1
2019-Nov-20 20:22 235 2 gusting 6 11.1
2019-Nov-20 20:17 312 1 gusting 6 11.1
2019-Nov-20 20:12 005 2 gusting 6 11.1
2019-Nov-20 20:07 278 2 gusting 7 11.1
2019-Nov-20 20:02 321 2 gusting 7 11.1
2019-Nov-20 19:57 290 2 gusting 7 11.1
2019-Nov-20 19:52 295 2 gusting 6 11.7
2019-Nov-20 19:47 264 2 gusting 11 11.7
2019-Nov-20 19:42 263 2 gusting 11 11.7
2019-Nov-20 19:37 001 2 gusting 6 11.7
2019-Nov-20 19:32 311 3 gusting 6 11.7
2019-Nov-20 19:27 245 3 gusting 9 11.1
2019-Nov-20 19:22 309 3 gusting 9 11.7
2019-Nov-20 19:17 280 3 gusting 9 11.7
2019-Nov-20 19:12 358 3 gusting 9 11.7
2019-Nov-20 19:07 242 3 gusting 9 11.7
2019-Nov-20 19:02 306 3 gusting 9 11.7
2019-Nov-20 18:57 290 2 gusting 9 11.7
2019-Nov-20 18:52 300 3 gusting 9 11.7
2019-Nov-20 18:47 012 4 gusting 10 11.7
2019-Nov-20 18:42 297 5 gusting 10 11.1
2019-Nov-20 18:37 197 4 gusting 11 11.7
2019-Nov-20 18:32 015 3 gusting 11 11.7
2019-Nov-20 18:27 260 3 gusting 9 11.1
2019-Nov-20 18:22 316 3 gusting 8 11.1
2019-Nov-20 18:17 295 3 gusting 9 11.1
2019-Nov-20 18:12 334 3 gusting 9 11.1
2019-Nov-20 18:07 203 3 gusting 9 11.1
2019-Nov-20 18:02 265 4 gusting 9 11.1
2019-Nov-20 17:57 291 3 gusting 9 11.1
2019-Nov-20 17:52 322 3 gusting 8 11.1
2019-Nov-20 17:47 283 2 gusting 8 10.6
2019-Nov-20 17:42 236 2 gusting 6 10.6
2019-Nov-20 17:37 246 2 gusting 6 10.6
2019-Nov-20 17:32 295 2 gusting 7 10.6
2019-Nov-20 17:27 200 3 gusting 7 10.6
2019-Nov-20 17:22 280 2 gusting 7 10.6
2019-Nov-20 17:17 334 1 gusting 5 10.0
2019-Nov-20 17:12 314 1 gusting 5 10.0
2019-Nov-20 17:07 226 2 gusting 6 10.0
2019-Nov-20 17:02 277 2 gusting 6 10.0
2019-Nov-20 16:57 289 2 gusting 6 10.0
2019-Nov-20 16:52 301 1 gusting 6 9.4
2019-Nov-20 16:47 288 1 gusting 6 9.4
2019-Nov-20 16:42 295 2 gusting 6 9.4
2019-Nov-20 16:37 266 2 gusting 6 9.4
2019-Nov-20 16:32 283 2 gusting 6 9.4
2019-Nov-20 16:27 294 2 gusting 6 8.9
2019-Nov-20 16:22 307 1 gusting 6 8.9
2019-Nov-20 16:17 301 1 gusting 7 8.9
2019-Nov-20 16:12 212 1 gusting 7 8.9
2019-Nov-20 16:07 255 1 gusting 6 8.9
2019-Nov-20 16:02 296 1 gusting 6 8.3
2019-Nov-20 15:57 297 0 gusting 6 8.3
2019-Nov-20 15:52 279 0 gusting 3 8.3
2019-Nov-20 15:47 229 0 gusting 4 8.3
2019-Nov-20 15:42 279 0 gusting 4 8.3
2019-Nov-20 15:37 290 0 gusting 4 8.3
2019-Nov-20 15:32 033 8.3
2019-Nov-20 15:27 280 0 gusting 3 8.3
2019-Nov-20 15:22 353 0 gusting 3 8.3
2019-Nov-20 15:17 290 0 gusting 3 8.3
2019-Nov-20 15:12 320 0 gusting 3 7.8
2019-Nov-20 15:07 316 0 gusting 3 7.8
2019-Nov-20 15:02 297 0 gusting 3 7.2
2019-Nov-20 14:57 293 0 gusting 3 7.2
2019-Nov-20 14:52 278 0 gusting 3 7.2
2019-Nov-20 14:47 278 7.2
2019-Nov-20 14:42 354 7.2
2019-Nov-20 14:37 278 7.2
2019-Nov-20 14:32 281 0 gusting 2 6.7
2019-Nov-20 14:27 301 0 gusting 2 6.7
2019-Nov-20 14:22 288 0 gusting 4 6.7
2019-Nov-20 14:17 280 0 gusting 4 6.7
2019-Nov-20 14:12 298 6.7
2019-Nov-20 14:07 288 6.7
2019-Nov-20 14:02 332 6.7
2019-Nov-20 13:57 238 6.7
2019-Nov-20 13:52 198 6.1
2019-Nov-20 13:47 313 6.1
2019-Nov-20 13:41 296 6.1
2019-Nov-20 13:37 051 6.1
2019-Nov-20 13:31 051 6.1
2019-Nov-20 13:26 296 6.1
2019-Nov-20 13:22 312 6.1
2019-Nov-20 13:16 312 5.6
2019-Nov-20 13:11
2019-Nov-20 13:06
2019-Nov-20 13:00
2019-Nov-20 12:56
2019-Nov-20 12:50
2019-Nov-20 12:45
2019-Nov-20 12:40
2019-Nov-20 12:34
2019-Nov-20 12:29
2019-Nov-20 12:24
2019-Nov-20 12:19
2019-Nov-20 12:14
2019-Nov-20 12:09
2019-Nov-20 12:03
2019-Nov-20 11:59
2019-Nov-20 11:53
2019-Nov-20 11:48
2019-Nov-20 11:43
2019-Nov-20 11:38
2019-Nov-20 11:32
2019-Nov-20 11:27
2019-Nov-20 11:22
2019-Nov-20 11:16
2019-Nov-20 11:11
2019-Nov-20 11:06
2019-Nov-20 11:00
2019-Nov-20 10:55
2019-Nov-20 10:49
2019-Nov-20 10:44
2019-Nov-20 10:38
2019-Nov-20 10:33
2019-Nov-20 10:28
2019-Nov-20 10:23
2019-Nov-20 10:17
2019-Nov-20 10:11
2019-Nov-20 10:06
2019-Nov-20 10:01
2019-Nov-20 09:55
2019-Nov-20 09:50
2019-Nov-20 09:45
2019-Nov-20 09:40
2019-Nov-20 09:35
2019-Nov-20 09:30
2019-Nov-20 09:25
2019-Nov-20 09:20
2019-Nov-20 09:15
2019-Nov-20 09:09
2019-Nov-20 09:04
2019-Nov-20 08:59
2019-Nov-20 08:53
2019-Nov-20 08:48
2019-Nov-20 08:42
2019-Nov-20 08:37
2019-Nov-20 08:32 227 6.1
2019-Nov-20 08:26 227 6.1
2019-Nov-20 08:21 227 6.1
2019-Nov-20 08:16 227 6.1
2019-Nov-20 08:11 228 6.1
2019-Nov-20 08:06 228 6.1
2019-Nov-20 08:00 228 6.1
2019-Nov-20 07:55 227 6.1
2019-Nov-20 07:50 228 6.1
2019-Nov-20 07:45 228 5.6
2019-Nov-20 07:40 228 5.6
2019-Nov-20 07:35 228 5.6
2019-Nov-20 07:33 228 5.6
2019-Nov-20 07:25 228 5.6
2019-Nov-20 07:20 228 5.6
2019-Nov-20 07:15 228 5.6
2019-Nov-20 07:10 228 5.6
2019-Nov-20 07:05 228 5.6
2019-Nov-20 07:00 227 5.0
2019-Nov-20 06:55 228 5.0
2019-Nov-20 06:50 228 5.0
2019-Nov-20 06:45 228 5.0
2019-Nov-20 06:40 228 5.0
2019-Nov-20 06:35 228 5.0
2019-Nov-20 06:30 227 5.0
2019-Nov-20 06:25 228 5.0
2019-Nov-20 06:20 228 5.0
2019-Nov-20 06:15 228 5.0
2019-Nov-20 06:10 228 5.0
2019-Nov-20 06:05 228 5.0
2019-Nov-20 06:00 228 5.0
2019-Nov-20 05:55 228 5.0
2019-Nov-20 05:50 228 5.0
2019-Nov-20 05:45 228 5.0
2019-Nov-20 05:40 228 5.0
2019-Nov-20 05:35 228 5.6
2019-Nov-20 05:30 228 5.6
2019-Nov-20 05:25 228 5.6
2019-Nov-20 05:20 229 5.6
2019-Nov-20 05:15 228 5.6
2019-Nov-20 05:10 228 6.1
2019-Nov-20 05:05 228 6.1
2019-Nov-20 05:00 228 6.1
2019-Nov-20 04:55 228 6.1
2019-Nov-20 04:50 228 6.1
2019-Nov-20 04:45 228 6.1
2019-Nov-20 04:40 228 6.7
2019-Nov-20 04:35 228 6.7
2019-Nov-20 04:30 228 6.7
2019-Nov-20 04:25 228 6.7
2019-Nov-20 04:20 228 6.7
2019-Nov-20 04:15 228 6.7
2019-Nov-20 04:10 228 6.7
2019-Nov-20 04:05 228 6.7
2019-Nov-20 04:00 228 6.7
2019-Nov-20 03:55 228 6.7
2019-Nov-20 03:50 228 6.7
2019-Nov-20 03:45 228 6.7
2019-Nov-20 03:40 228 6.7
2019-Nov-20 03:35 228 6.7
2019-Nov-20 03:30 228 6.7
2019-Nov-20 03:25 228 6.7
2019-Nov-20 03:20 228 6.7
2019-Nov-20 03:15 228 6.7
2019-Nov-20 03:10 228 6.7
2019-Nov-20 03:05 228 6.7
2019-Nov-20 03:00 227 6.7
2019-Nov-20 02:55 228 6.7
2019-Nov-20 02:50 228 6.7
2019-Nov-20 02:45 228 6.7
2019-Nov-20 02:40 228 6.7
2019-Nov-20 02:35 228 6.7
2019-Nov-20 02:30 228 6.7
2019-Nov-20 02:25 228 6.7
2019-Nov-20 02:20 228 6.7
2019-Nov-20 02:15 228 6.7
2019-Nov-20 02:10 228 6.7
2019-Nov-20 02:05 228 6.7
2019-Nov-20 02:00 228 6.7
2019-Nov-20 01:55 228 6.7
2019-Nov-20 01:50 228 6.7
2019-Nov-20 01:45 227 6.7
2019-Nov-20 01:40 228 6.7
2019-Nov-20 01:35 228 6.7
2019-Nov-20 01:30 227 6.7
2019-Nov-20 01:20 228 6.7
2019-Nov-20 01:15 228 6.7
2019-Nov-20 01:10 228 6.7
2019-Nov-20 01:05 228 6.7
2019-Nov-20 01:00 228 6.7
2019-Nov-20 00:55 228 6.7
2019-Nov-20 00:50 228 7.2
2019-Nov-20 00:45 228 7.2
2019-Nov-20 00:40 228 7.2
2019-Nov-20 00:35 228 7.2
2019-Nov-20 00:30 228 7.2
2019-Nov-20 00:25 228 7.2
2019-Nov-20 00:20 228 7.2
2019-Nov-20 00:15 228 7.2
2019-Nov-20 00:10 228 7.2
2019-Nov-20 00:05 228 7.2
2019-Nov-20 00:00 228 7.2
2019-Nov-19 23:55 228 7.8
2019-Nov-19 23:50 228 7.8
2019-Nov-19 23:45 228 7.8
2019-Nov-19 23:40 228 7.8
2019-Nov-19 23:35 228 7.8
2019-Nov-19 23:30 228 7.8
2019-Nov-19 23:25 228 7.8
2019-Nov-19 23:20 228 7.8
2019-Nov-19 23:15 228 7.8
2019-Nov-19 23:10 227 7.8
2019-Nov-19 23:05 227 7.8
2019-Nov-19 23:00 228 7.8
2019-Nov-19 22:55 227 7.8
2019-Nov-19 22:50 228 7.8
2019-Nov-19 22:45 228 7.8
2019-Nov-19 22:40 227 8.3
2019-Nov-19 22:35 228 8.3
2019-Nov-19 22:30 228 8.3
2019-Nov-19 22:25 228 8.3
2019-Nov-19 22:20 228 8.3
2019-Nov-19 22:15 228 8.3
2019-Nov-19 22:10 228 8.3
2019-Nov-19 22:05 228 8.3
2019-Nov-19 22:00 228 8.3
2019-Nov-19 21:55 228 8.9
2019-Nov-19 21:50 228 8.9
2019-Nov-19 21:45 228 8.9
2019-Nov-19 21:40 228 9.4
2019-Nov-19 21:35 231 9.4
2019-Nov-19 21:30 280 9.4
2019-Nov-19 21:25 280 9.4
2019-Nov-19 21:20 279 9.4
2019-Nov-19 21:15 280 9.4
2019-Nov-19 21:10 280 9.4
2019-Nov-19 21:05 279 10.0
2019-Nov-19 21:00 279 10.0
2019-Nov-19 20:55 278 10.0
2019-Nov-19 20:50 278 10.0
2019-Nov-19 20:45 252 10.0
2019-Nov-19 20:40 343 10.0
2019-Nov-19 20:35 343 10.0
2019-Nov-19 20:30 328 10.0
2019-Nov-19 20:25 249 10.0
2019-Nov-19 20:20 336 10.6
2019-Nov-19 20:15 298 10.6
2019-Nov-19 20:10 284 10.0
2019-Nov-19 20:05 255 10.0
2019-Nov-19 20:00 279 10.0
2019-Nov-19 19:55 281 10.0
2019-Nov-19 19:50 285 10.6
2019-Nov-19 19:45 023 0 gusting 3 10.6
2019-Nov-19 19:39 193 0 gusting 2 10.6
2019-Nov-19 19:35 10.6
2019-Nov-19 19:29 251 0 gusting 1 10.6
2019-Nov-19 19:24 240 0 gusting 2 10.6
2019-Nov-19 19:20 295 0 gusting 2 10.6
2019-Nov-19 19:15 025 0 gusting 2 10.6
2019-Nov-19 19:10 274 10.6
2019-Nov-19 19:04 306 0 gusting 4 10.6
2019-Nov-19 19:00 263 1 gusting 4 10.6
2019-Nov-19 18:55 314 0 gusting 4 10.0
2019-Nov-19 18:49 265 0 gusting 3 10.0
2019-Nov-19 18:44 225 0 gusting 2 10.0
2019-Nov-19 18:39 305 0 gusting 3 10.0
2019-Nov-19 18:34 191 0 gusting 5 10.0
2019-Nov-19 18:29 266 1 gusting 5 10.0
2019-Nov-19 18:24 258 0 gusting 5 10.0
2019-Nov-19 18:19 271 0 gusting 3 9.4
2019-Nov-19 18:14 273 0 gusting 3 9.4
2019-Nov-19 18:09 228 0 gusting 3 9.4
2019-Nov-19 18:04 274 0 gusting 3 9.4
2019-Nov-19 17:59 257 0 gusting 3 10.0
2019-Nov-19 17:54 282 0 gusting 4 10.0
2019-Nov-19 17:49 232 1 gusting 4 10.0
2019-Nov-19 17:44 253 1 gusting 5 10.0
2019-Nov-19 17:39 287 1 gusting 5 10.0
2019-Nov-19 17:34 298 2 gusting 6 10.0
2019-Nov-19 17:29 255 1 gusting 6 10.0
2019-Nov-19 17:24 260 0 gusting 5 10.0
2019-Nov-19 17:19 315 0 gusting 4 10.0
2019-Nov-19 17:14 253 0 gusting 3 9.4
2019-Nov-19 17:09 244 0 gusting 4 10.0
2019-Nov-19 17:04 283 0 gusting 4 10.0
2019-Nov-19 16:59 294 1 gusting 5 10.0
2019-Nov-19 16:54 285 1 gusting 5 10.0
2019-Nov-19 16:49 290 0 gusting 5 10.0
2019-Nov-19 16:44 030 0 gusting 5 10.0
2019-Nov-19 16:39 216 0 gusting 4 10.0
2019-Nov-19 16:34 340 0 gusting 6 10.0
2019-Nov-19 16:29 231 0 gusting 6 10.0
2019-Nov-19 16:24 264 0 gusting 3 9.4
2019-Nov-19 16:19 288 0 gusting 4 9.4
2019-Nov-19 16:14 314 0 gusting 4 9.4
2019-Nov-19 16:09 246 0 gusting 4 9.4
2019-Nov-19 16:04 246 0 gusting 2 9.4
2019-Nov-19 15:59 288 0 gusting 3 9.4
2019-Nov-19 15:54 260 0 gusting 3 9.4
2019-Nov-19 15:49 217 0 gusting 2 9.4
2019-Nov-19 15:44 250 0 gusting 4 8.9
2019-Nov-19 15:39 001 0 gusting 4 8.9
2019-Nov-19 15:34 333 0 gusting 4 8.9
2019-Nov-19 15:29 281 0 gusting 4 8.9
2019-Nov-19 15:24 287 0 gusting 3 8.9
2019-Nov-19 15:19 250 0 gusting 3 8.9
2019-Nov-19 15:14 325 0 gusting 2 8.9
2019-Nov-19 15:09 252 8.9
2019-Nov-19 15:04 235 0 gusting 3 8.9
2019-Nov-19 14:59 305 0 gusting 3 8.9
2019-Nov-19 14:54 259 0 gusting 3 8.9
2019-Nov-19 14:49 252 0 gusting 3 8.9
2019-Nov-19 14:44 321 0 gusting 3 8.9
2019-Nov-19 14:39 188 0 gusting 4 8.9
2019-Nov-19 14:34 287 0 gusting 4 8.9
2019-Nov-19 14:29 288 0 gusting 3 8.9
2019-Nov-19 14:24 145 1 gusting 3 8.9
2019-Nov-19 14:19 271 1 gusting 3 8.3
2019-Nov-19 14:14 273 1 gusting 3 8.3
2019-Nov-19 14:09 280 1 gusting 6 8.3
2019-Nov-19 14:04 252 1 gusting 6 8.3
2019-Nov-19 13:59 266 1 gusting 5 8.9
2019-Nov-19 13:54 274 0 gusting 5 8.9
2019-Nov-19 13:49 273 0 gusting 4 8.3
2019-Nov-19 13:44 270 0 gusting 4 8.3
2019-Nov-19 13:39 309 0 gusting 2 8.3
2019-Nov-19 13:34 255 8.3
2019-Nov-19 13:29 257 8.3
2019-Nov-19 13:24 280 8.3
2019-Nov-19 13:19 190 8.3
2019-Nov-19 13:14 190 8.3
2019-Nov-19 13:09 215 7.8
2019-Nov-19 13:04 250 7.8
2019-Nov-19 12:59 250 7.8
2019-Nov-19 12:54 250 7.8
2019-Nov-19 12:49
2019-Nov-19 12:44
2019-Nov-19 12:38
2019-Nov-19 12:33
2019-Nov-19 12:28
2019-Nov-19 12:22
2019-Nov-19 12:17
2019-Nov-19 12:12
2019-Nov-19 12:06
2019-Nov-19 12:01
2019-Nov-19 11:55
2019-Nov-19 11:50
2019-Nov-19 11:45
2019-Nov-19 11:39
2019-Nov-19 11:34
2019-Nov-19 11:29
2019-Nov-19 11:23
2019-Nov-19 11:18
2019-Nov-19 11:13
2019-Nov-19 11:08
2019-Nov-19 11:02
2019-Nov-19 10:57
2019-Nov-19 10:52
2019-Nov-19 10:47
2019-Nov-19 10:42
2019-Nov-19 10:36
2019-Nov-19 10:32
2019-Nov-19 10:27
2019-Nov-19 10:21
2019-Nov-19 10:16
2019-Nov-19 10:11
2019-Nov-19 10:05
2019-Nov-19 10:00
2019-Nov-19 09:55
2019-Nov-19 09:50
2019-Nov-19 09:44
2019-Nov-19 09:39
2019-Nov-19 09:34
2019-Nov-19 09:29
2019-Nov-19 09:23
2019-Nov-19 09:17
2019-Nov-19 09:12
2019-Nov-19 09:07
2019-Nov-19 09:01
2019-Nov-19 08:55
2019-Nov-19 08:50
2019-Nov-19 08:45
2019-Nov-19 08:39
2019-Nov-19 08:34
2019-Nov-19 08:29
2019-Nov-19 08:23
2019-Nov-19 08:17
2019-Nov-19 08:12
2019-Nov-19 08:07 089 6.1
2019-Nov-19 08:02 089 6.1
2019-Nov-19 07:56 089 6.1
2019-Nov-19 07:51 089 6.1
2019-Nov-19 07:46 089 6.7
2019-Nov-19 07:41 089 6.7
2019-Nov-19 07:36 257 6.7
2019-Nov-19 07:31 257 7.2
2019-Nov-19 07:26 257 7.2
2019-Nov-19 07:21 257 7.2
2019-Nov-19 07:16 257 7.2
2019-Nov-19 07:11 257 7.2
2019-Nov-19 07:06 257 7.2
2019-Nov-19 07:01 257 7.2
2019-Nov-19 06:56 257 7.2
2019-Nov-19 06:51 257 7.2
2019-Nov-19 06:46 257 6.7
2019-Nov-19 06:41 257 6.7
2019-Nov-19 06:36 285 6.7
2019-Nov-19 06:31 285 6.7
2019-Nov-19 06:26 285 6.7
2019-Nov-19 06:21 285 6.7
2019-Nov-19 06:16 285 6.7
2019-Nov-19 06:11 285 6.7
2019-Nov-19 06:06 285 6.7
2019-Nov-19 06:01 285 6.7